DW9665 Sarajevo BA current weather conditions

sailwx.info

Air temperature 25.0° C
Dewpoint -3.4° C

Last reported at 2016-May-30 11:47 UTC.
Time now 2016-May-30 12:42 UTC

Location: N 43°50' E 018°21'.
View on Google Maps.

See reports from other nearby stations

  
Tides and Currents Weather Stations Pressure Air Temp Water Temp Dewpoint Dewpoint Depression Visibility Wind Speed Wind Dir Waves Ship Positions
date/time (UTC)wind fromknots sea level pressurealtimeterstation pressurevisibilityair tempwater tempwave heightnotes
2016-May-30 11:47 25.0
2016-May-30 11:32 292 5 gusting 5 25.0
2016-May-30 11:17 270 8 gusting 12 24.4
2016-May-30 11:02 270 8 gusting 12 24.4
2016-May-30 10:47 292 4 gusting 10 23.9
2016-May-30 10:32 270 8 gusting 6 24.4
2016-May-30 10:17 270 5 gusting 8 24.4
2016-May-30 10:02 270 4 gusting 6 24.4
2016-May-30 09:47 180 1 gusting 5 23.9
2016-May-30 09:32 270 2 gusting 1 22.8
2016-May-30 09:17 270 2 gusting 3 22.8
2016-May-30 09:02 180 1 23.3
2016-May-30 08:47 180 1 gusting 2 23.3
2016-May-30 08:32 180 0 gusting 0 23.3
2016-May-30 08:17 180 1 gusting 2 23.9
2016-May-30 08:02 180 1 gusting 0 24.4
2016-May-30 07:47 180 3 gusting 2 23.9
2016-May-30 07:32 158 23.9
2016-May-30 07:17 135 0 gusting 2 23.3
2016-May-30 07:02 090 22.8
2016-May-30 06:47 158 3 gusting 5 21.7
2016-May-30 06:32 180 1 gusting 0 21.7
2016-May-30 06:17 180 1 gusting 2 21.1
2016-May-30 06:02 270 1 gusting 0 20.0
2016-May-30 05:47 270 0 19.4
2016-May-30 05:32 19.4
2016-May-30 05:17 158 4 gusting 1 19.4
2016-May-30 05:02 180 4 gusting 2 18.9
2016-May-30 04:32 18.9
2016-May-30 04:17 18.3
2016-May-30 04:02 17.2
2016-May-30 03:47 16.7
2016-May-30 03:32 17.8
2016-May-30 03:17 17.2
2016-May-30 03:02 158 4 gusting 5 17.8
2016-May-30 02:47 158 4 gusting 7 18.9
2016-May-30 02:32 135 6 gusting 7 18.9
2016-May-30 02:17 135 5 gusting 10 18.9
2016-May-30 02:02 158 6 gusting 7 18.9
2016-May-30 01:47 135 8 gusting 5 18.9
2016-May-30 01:32 180 5 gusting 7 18.9
2016-May-30 01:17 112 3 gusting 3 19.4
2016-May-30 01:02 135 5 gusting 6 19.4
2016-May-30 00:47 158 3 gusting 8 19.4
2016-May-30 00:32 135 5 gusting 8 20.0
2016-May-30 00:17 135 3 gusting 8 20.0
2016-May-30 00:02 135 5 gusting 7 20.0
2016-May-29 23:47 158 5 gusting 4 20.0
2016-May-29 23:32 090 0 gusting 1 20.0
2016-May-29 23:17 135 3 gusting 5 20.6
2016-May-29 23:02 135 4 gusting 5 20.0
2016-May-29 22:47 158 1 gusting 2 18.9
2016-May-29 22:32 180 0 gusting 1 20.0
2016-May-29 22:17 270 19.4
2016-May-29 22:02 135 19.4
2016-May-29 21:47 135 0 gusting 5 20.6
2016-May-29 21:32 112 1 gusting 4 21.1
2016-May-29 21:17 135 4 gusting 6 21.1
2016-May-29 21:02 158 4 gusting 5 21.1
2016-May-29 20:47 135 2 gusting 6 21.1
2016-May-29 20:32 180 20.6
2016-May-29 20:17 158 21.7
2016-May-29 20:02 135 0 gusting 2 21.7
2016-May-29 19:47 158 0 gusting 1 22.2
2016-May-29 19:32 112 1 gusting 1 22.2
2016-May-29 19:17 158 1 gusting 3 22.2
2016-May-29 19:02 180 22.8
2016-May-29 18:47 158 3 gusting 2 22.8
2016-May-29 18:32 180 1 gusting 5 23.3
2016-May-29 18:17 180 2 23.3
2016-May-29 18:02 23.9
2016-May-29 17:47 158 5 gusting 6 24.4
2016-May-29 17:32 24.4
2016-May-29 17:17 25.0
2016-May-29 17:02 25.0
2016-May-29 16:47 25.6
2016-May-29 16:32 158 4 gusting 4 25.6
2016-May-29 16:17 25.6
2016-May-29 16:02 25.6
2016-May-29 15:47 112 2 gusting 2 26.1
2016-May-29 15:32 112 2 gusting 1 26.1
2016-May-29 15:17 180 3 26.7
2016-May-29 15:02 26.7
2016-May-29 14:47 180 5 gusting 6 27.2
2016-May-29 14:32 135 6 gusting 5 27.8
2016-May-29 14:17 180 4 gusting 5 28.3
2016-May-29 14:02 158 2 gusting 4 29.4
2016-May-29 13:47 180 3 gusting 8 29.4
2016-May-29 13:32 135 5 gusting 7 29.4
2016-May-29 13:17 158 2 gusting 7 28.9
2016-May-29 13:02 180 3 gusting 2 28.9
2016-May-29 12:47 135 2 gusting 4 28.3
2016-May-29 12:32 338 1 gusting 4 28.9
2016-May-29 12:17 270 28.3
2016-May-29 12:02 090 1 gusting 4 28.3
2016-May-29 11:47 292 4 gusting 4 28.3
2016-May-29 11:32 315 3 gusting 4 27.2
2016-May-29 11:17 292 2 gusting 3 27.8
2016-May-29 11:02 180 2 gusting 3 26.7
2016-May-29 10:47 158 27.2
2016-May-29 10:32 090 1 gusting 6 26.7
2016-May-29 10:17 292 1 gusting 1 26.1
2016-May-29 10:02 270 0 gusting 3 25.6
2016-May-29 09:47 270 1 gusting 2 25.0
2016-May-29 09:32 135 2 gusting 3 25.6
2016-May-29 09:17 180 1 gusting 3 23.9
2016-May-29 09:02 270 0 gusting 1 23.3
2016-May-29 08:47 23.3
2016-May-29 08:32 158 0 gusting 0 21.7
2016-May-29 08:17 158 21.1
2016-May-29 08:02 158 20.6
2016-May-29 07:47 158 20.0
2016-May-29 07:32 158 0 19.4
2016-May-29 07:17 18.9
2016-May-29 07:02 158 18.9
2016-May-29 06:47 158 0 17.8
2016-May-29 06:32 17.8
2016-May-29 06:17 16.7
2016-May-29 06:02 16.7
2016-May-29 05:47 16.7
2016-May-29 05:32 158 17.2
2016-May-29 05:17 16.1
2016-May-29 05:02 15.6
2016-May-29 04:47 15.0
2016-May-29 04:32 15.0
2016-May-29 04:17 15.0
2016-May-29 04:02 14.4
2016-May-29 03:47 14.4
2016-May-29 03:32 15.0
2016-May-29 03:17 15.0
2016-May-29 03:02 15.6
2016-May-29 02:47 15.6
2016-May-29 02:32 15.6
2016-May-29 02:17 135 15.6
2016-May-29 02:02 135 15.6
2016-May-29 01:47 16.1
2016-May-29 01:32 16.1
2016-May-29 01:17 16.1
2016-May-29 01:02 180 16.7
2016-May-29 00:47 270 0 16.7
2016-May-29 00:32 292 0 gusting 2 17.2
2016-May-29 00:17 292 0 gusting 2 17.2
2016-May-29 00:02 17.8
2016-May-28 23:47 17.8
2016-May-28 23:32 180 17.8
2016-May-28 23:17 180 18.3
2016-May-28 23:02 158 18.3
2016-May-28 22:47 180 18.9
2016-May-28 22:32 180 18.9
2016-May-28 22:17 135 19.4
2016-May-28 22:02 20.0
2016-May-28 21:47 20.6
2016-May-28 21:32 21.1
2016-May-28 21:17 21.1
2016-May-28 21:02 158 21.7
2016-May-28 20:47 135 22.2
2016-May-28 20:32 180 22.8
2016-May-28 20:17 158 22.8
2016-May-28 20:02 112 0 gusting 1 23.3
2016-May-28 19:47 23.9
2016-May-28 19:32 158 24.4
2016-May-28 19:17 25.0
2016-May-28 19:02 25.0
2016-May-28 18:47 25.6
2016-May-28 18:32 25.6
2016-May-28 18:17 26.7
2016-May-28 18:02 27.2
2016-May-28 17:47 27.8
2016-May-28 17:32 28.3
2016-May-28 17:17 28.3
2016-May-28 17:02 28.9
2016-May-28 16:47 28.9
2016-May-28 16:32 28.9
2016-May-28 16:17 29.4
2016-May-28 16:02 180 0 gusting 0 30.0
2016-May-28 15:47 180 0 gusting 0 30.6
2016-May-28 15:32 30.6
2016-May-28 15:17 158 1 gusting 2 30.6
2016-May-28 15:02 180 31.7
2016-May-28 14:47 180 0 gusting 2 31.7
2016-May-28 14:32 180 1 gusting 5 31.7
2016-May-28 14:17 270 3 gusting 4 31.1
2016-May-28 14:02 112 1 gusting 2 31.1
2016-May-28 13:47 180 2 gusting 5 30.6
2016-May-28 13:32 180 3 gusting 5 31.1
2016-May-28 13:17 270 4 gusting 6 30.6
2016-May-28 13:02 135 5 gusting 4 31.1
2016-May-28 12:47 292 0 gusting 2 31.1
2016-May-28 12:32 30.0
2016-May-28 12:17 315 3 gusting 3 30.0
2016-May-28 12:02 090 1 gusting 4 30.0